TimeCDT,TemperatureF,Dew PointF,Humidity,Sea Level PressureIn,VisibilityMPH,Wind Direction,Wind SpeedMPH,Gust SpeedMPH,PrecipitationIn,Events,Conditions,WindDirDegrees,DateUTC
12:55 AM,42.1,39.9,92,29.97,10.0,West,4.6,-,N/A,,Clear,260,2012-10-15 05:55:00
1:55 AM,45.0,41.0,86,29.98,10.0,NW,4.6,-,N/A,,Clear,310,2012-10-15 06:55:00
2:55 AM,42.1,39.0,89,29.98,10.0,Calm,Calm,-,N/A,,Clear,0,2012-10-15 07:55:00
3:55 AM,42.1,39.0,89,29.99,10.0,West,4.6,-,N/A,,Clear,270,2012-10-15 08:55:00
4:55 AM,39.9,39.0,97,30.00,10.0,West,4.6,-,N/A,,Clear,280,2012-10-15 09:55:00
5:55 AM,39.0,37.0,93,30.01,10.0,WNW,4.6,-,N/A,,Clear,290,2012-10-15 10:55:00
6:55 AM,41.0,37.9,89,30.02,10.0,NW,3.5,-,N/A,,Clear,320,2012-10-15 11:55:00
7:55 AM,43.0,37.9,82,30.02,10.0,NNW,3.5,-,N/A,,Clear,340,2012-10-15 12:55:00
8:55 AM,48.9,42.1,77,30.04,10.0,West,4.6,-,N/A,,Clear,280,2012-10-15 13:55:00
9:55 AM,54.0,42.1,64,30.04,10.0,Calm,Calm,-,N/A,,Clear,0,2012-10-15 14:55:00
10:55 AM,59.0,41.0,51,30.04,10.0,Variable,3.5,-,N/A,,Clear,0,2012-10-15 15:55:00
11:55 AM,62.1,39.9,44,30.03,10.0,Calm,Calm,-,N/A,,Clear,0,2012-10-15 16:55:00
12:55 PM,64.9,39.9,40,30.02,10.0,Calm,Calm,-,N/A,,Clear,0,2012-10-15 17:55:00
1:55 PM,66.9,39.9,37,29.99,10.0,Variable,3.5,-,N/A,,Clear,0,2012-10-15 18:55:00
2:55 PM,66.9,42.1,40,29.98,10.0,South,3.5,-,N/A,,Clear,190,2012-10-15 19:55:00
3:55 PM,68.0,42.1,39,29.96,10.0,South,5.8,-,N/A,,Clear,190,2012-10-15 20:55:00
4:55 PM,66.9,44.1,44,29.94,10.0,SSE,3.5,-,N/A,,Clear,160,2012-10-15 21:55:00
5:55 PM,63.0,46.0,54,29.94,10.0,SE,5.8,-,N/A,,Clear,130,2012-10-15 22:55:00
6:55 PM,57.9,44.1,60,29.94,10.0,South,3.5,-,N/A,,Clear,180,2012-10-15 23:55:00
7:55 PM,53.1,44.1,71,29.94,10.0,SE,3.5,-,N/A,,Clear,140,2012-10-16 00:55:00
8:55 PM,55.0,43.0,64,29.93,10.0,SE,4.6,-,N/A,,Clear,130,2012-10-16 01:55:00
9:55 PM,50.0,43.0,77,29.93,10.0,SE,5.8,-,N/A,,Clear,140,2012-10-16 02:55:00
10:55 PM,50.0,43.0,77,29.92,10.0,SE,6.9,-,N/A,,Clear,140,2012-10-16 03:55:00
11:55 PM,51.1,44.1,77,29.90,10.0,SE,6.9,-,N/A,,Clear,140,2012-10-16 04:55:00